www.pogodaiklimat.ru
ПОГОДА в Бурукане
Время
(UTC), дата
09 14.10
12 14.10
15 14.10
18 14.10
21 14.10
00 15.10
03 15.10
06 15.10
09 15.10
12 15.10
15 15.10
18 15.10
21 15.10
00 16.10
03 16.10
06 16.10
09 16.10
12 16.10
15 16.10
18 16.10
21 16.10
00 17.10
03 17.10
06 17.10
09 17.10
12 17.10
15 17.10
18 17.10
21 17.10
00 18.10
03 18.10
06 18.10
09 18.10
12 18.10
15 18.10
18 18.10
21 18.10
00 19.10
03 19.10
06 19.10
09 19.10
12 19.10
15 19.10
18 19.10
21 19.10
00 20.10
03 20.10
06 20.10
09 20.10
12 20.10
15 20.10
18 20.10
21 20.10
00 21.10
03 21.10
Ветер
(напр.,м/с)
Видим. Явления Облачность Т
(С)
Тd
(С)
f
(%)
Тe
(С)
Тes
(С)
Комфортность P
(гПа)
Po
(гПа)
Тmin
(С)
Tmax
(С)
R
(мм)
R24
(мм)
S
(см)
СЗ 2 50 км 6/0
[Ac lent Ci fib]
0.0 -16.1 29 -3 -3 прохладно 1015.0 995.8 +3.5
СЗ 3 50 км 10/0
[Ac lent Ci fib]
+0.5 -15.6 29 -3 -3 прохладно 1014.8 995.6
СЗ 2 50 км 6/0
[Ci fib]
+0.5 -15.7 28 -2 -2 по сезону 1014.3 995.1
СЗ 2 50 км ясно +0.2 -15.9 29 -2 -2 по сезону 1014.4 995.2
З 1 50 км ясно -6.2 -14.5 52 -8 -8 очень
холодно
1014.8 995.2 -6.2
СЗ 2 50 км ясно +3.1 -13.0 30 +1 +3 по сезону 1014.3 995.4 -7.0
СЗ 4 50 км 8/0
[Ci fib]
+7.4 -15.6 18 +5 +8 тепло 1013.3 994.6
СЗ 2 50 км 6/0
[Ci fib]
+8.9 -17.8 13 +8 +10 тепло 1012.2 993.6
СЗ 1 50 км 10/1 600 м
[Sc Ac trans Ci fib]
+4.8 -15.4 22 +5 +5 тепло 1013.2 994.3 +9.4
СЗ 1 50 км 10/0
[Ac trans Ci fib]
+2.4 -15.3 26 +2 +2 по сезону 1014.1 995.0
штиль 0 50 км 10/0
[Cs]
-2.2 -11.8 48 -3 -3 прохладно 1014.7 995.3
штиль 0 50 км 10/0
[Cs]
-3.2 -11.0 55 -4 -4 прохладно 1015.1 995.7
С 1 50 км 10/0
[As trans]
-4.0 -10.2 62 -6 -6 холодно 1015.7 996.2 -5.1
СЗ 1 50 км 10/0
[Ac trans Cs]
+3.0 -9.7 39 +2 +4 по сезону 1016.6 997.6
ЮЗ 2 50 км 9/8 600 м
[Sc Ci fib]
+6.2 -11.5 27 +5 +6 тепло 1015.9 997.1
ЮЗ 1 50 км 10/8 600 м
[Sc Ac und]
+5.6 -11.7 28 +5 +6 тепло 1017.2 998.3
СВ 2 50 км 10/9 600 м
[Cb cap Ac und]
+3.9 -11.6 31 +2 +2 по сезону 1019.5 1000.5 +6.6
штиль 0 50 км 10/4 600 м
[Sc Ac und]
-1.4 -9.9 52 -2 -2 по сезону 1021.0 1001.5
штиль 0 50 км 10/10 600 м
[Sc]
-2.1 -8.7 61 -3 -3 прохладно 1021.0 1001.5
штиль 0 50 км ясно -5.2 -8.4 78 -6 -6 холодно 1021.4 1001.8
штиль 0 50 км ясно -9.5 -11.8 83 -10 -10 очень
холодно
1022.4 1002.4 -9.5
штиль 0 50 км ясно +2.4 -7.9 46 +2 +4 по сезону 1022.7 1003.4 -10.0
З 2 50 км ясно +9.9 -11.3 21 +9 +13 тепло 1021.0 1002.4
СЗ 3 50 км ясно +12.5 -13.8 15 +12 +13 тепло 1019.8 1001.3
штиль 0 50 км ясно +1.4 -9.8 43 +1 +1 по сезону 1021.3 1002.1 +12.6
З 1 50 км ясно -1.1 -7.3 63 -3 -3 прохладно 1022.0 1002.6
З 1 50 км 1/0
[Ac trans]
-4.5 -8.3 75 -7 -7 холодно 1021.7 1002.1
З 1 50 км 3/0
[Ac trans Ci fib]
-2.0 -6.6 71 -4 -4 прохладно 1021.4 1001.9
СЗ 2 50 км 3/0
[Ci fib]
-2.8 -6.8 74 -7 -7 холодно 1021.8 1002.3 -4.6
З 1 50 км 8/0
[Ac lent Ci fib]
+4.3 -3.8 56 +3 +4 по сезону 1021.8 1002.7
З 2 50 км 3/0
[Ac trans]
+13.0 -3.7 31 +13 +16 тепло 1020.2 1001.8
З 2 50 км 1/0
[Ci fib]
+15.9 -3.2 27 +16 +17 тепло 1019.3 1001.1
СЗ 1 50 км ясно +3.9 -4.3 55 +3 +3 по сезону 1020.6 1001.6 +16.4
СЗ 1 50 км ясно -2.9 -6.7 75 -5 -5 холодно 1021.3 1001.8
СЗ 1 50 км 3/0
[Ac trans]
-4.2 -7.0 81 -6 -6 холодно 1020.7 1001.1
СЗ 1 50 км 1/0
[Ac trans]
-4.5 -6.3 87 -7 -7 холодно 1020.7 1001.1
штиль 0 50 км 3/0
[Ac trans Ci fib]
-5.9 -7.6 88 -7 -7 холодно 1020.4 1000.7 -6.1
штиль 0 50 км 6/0
[Ci fib]
+2.5 -3.0 67 +2 +4 по сезону 1019.9 1000.8 -6.4
З 1 50 км 9/0
[Ac trans Ci fib]
+10.0 -2.8 41 +10 +14 тепло 1017.6 999.0
З 1 50 км 5/0
[Ci fib]
+12.9 -3.3 32 +13 +15 тепло 1016.1 997.7
штиль 0 50 км 4/0
[Ac trans Ci fib]
+1.8 -4.9 61 +1 +1 по сезону 1017.3 998.1 +12.9
штиль 0 50 км 6/0
[Ac As Ci fib]
-2.7 -6.6 74 -4 -4 прохладно 1018.1 998.6
СЗ 1 50 км 4/0
[Ac trans]
-2.5 -5.7 79 -5 -5 холодно 1018.4 998.9
СЗ 2 50 км 9/8 600 м
[Cb cap Ac trans Ci fib]
-1.4 -4.2 81 -5 -5 холодно 1018.4 999.0
СЗ 1 50 км 8/0
[Ac trans Ci fib]
-3.6 -5.6 86 -6 -6 холодно 1018.7 999.1 -3.6
С 2 50 км 3/0
[Ac trans Ci fib]
+5.1 -3.1 55 +3 +4 по сезону 1018.5 999.6 -4.0
З 2 50 км 8/0
[Ac trans Ci fib]
+11.6 -3.9 34 +11 +13 тепло 1016.7 998.2
В 1 50 км 9/0
[Ac trans Cs]
+13.2 -2.8 33 +14 +15 тепло 1015.2 996.9
штиль 0 50 км 6/0
[Ac trans Ci fib]
+2.3 -3.9 64 +2 +2 по сезону 1016.2 997.1 +13.4
штиль 0 50 км 3/0
[Ac trans Ci fib]
-2.3 -5.9 76 -3 -3 прохладно 1016.7 997.3
штиль 0 50 км 1/0
[Ci fib]
-4.7 -6.8 85 -6 -6 холодно 1016.1 996.6
штиль 0 50 км ясно -4.1 -5.5 90 -5 -5 холодно 1015.3 995.8
штиль 0 50 км 8/8 600 м
[St]
-1.7 -3.0 91 -3 -3 прохладно 1014.6 995.2 -5.1
ЮЗ 1 50 км 10/10 600 м
[St]
+0.3 -0.9 92 -2 -2 по сезону 1013.9 994.7
З 1 50 км 5/1 600 м
[Sc Ac trans Ci fib]
+5.1 +0.7 73 +4 +7 по сезону 1011.7 992.9
Местоположение метеостанции Бурукан (Хабаровский край, Россия): широта 53.05 долгота 136.00 высота над уровнем моря 153 м.
В архиве по умолчанию представлена погода в Бурукане за последнюю неделю. Архивные данные за месяц целиком и за предыдущие месяцы, начиная с января 2011 года, Вы можете получить, выбрав интересующий диапазон дат из раскрывающегося списка и нажав кнопку "Найти!".
*Определитесь, кто Вы:
Внимание! Время в таблицах - всемирное. Для получения местного времени необходимо прибавить поправку, которая равна 10 ч.
Смотрите также архив погоды в соседних городах и на ближайших метеорологических станциях:
Партнеры нашего сайта:      
Пояснения к столбцам:
  • Ветер - указаны скорость ветра в м/с - средняя за 10 мин, порывы в срок и между сроками (в фигурных скобках) и направление, откуда дует ветер: С - северный,
  • СВ - северо-восточный, В - восточный, ЮВ - юго-восточный, Ю - южный, ЮЗ - юго-западный, З - западный, СЗ - северо-западный.
  • Видимость - горизонтальная дальность видимости в метрах или километрах. При видимости от 1 до 10 км при отсутствии осадков обычно наблюдается дымка, при ухудшении видимости до 1 км и менее - туман. В сухую погоду видимость может ухудшаться дымом, пылью или мглою.
  • Явления - указаны атмосферные явления, наблюдавшиеся в срок или в последний час перед сроком; фигурными скобками обозначены явления, наблюдавшиеся между сроками (за 1-3 часа до срока); квадратными скобками обозначены град или гололедные отложения с указанием их диаметра в мм.
  • Облачность - указаны через наклонную черту общая и нижняя облачность в баллах и высота нижней границы облаков в метрах; квадратными скобками обозначены формы облаков: Ci - перистые, Cs - перисто-слоистые, Cc - перисто-кучевые, Ac - высококучевые, As - высокослоистые, Sc - слоисто-кучевые, Ns - слоисто-дождевые, Cu - кучевые, Cb - кучево-дождевые. Подробнее классификацию облаков см. в Атласе облаков (PDF).
  • T - Температура воздуха - температура, измеренная на высоте 2 м над землей.
  • Td - Температура точки росы - температура, при понижении до которой содержащийся в воздухе водяной пар достигнет насыщения.
  • f - Относительная влажность воздуха - влажноcть воздуха, измеренная на высоте 2 м над землей.
  • Te - Эффективная температура - температура, которую ощущает одетый по сезону человек в тени. Характеристика душности погоды. При расчете учитывается влияние влажности воздуха и скорости ветра на теплоощущения человека.
  • Tes - Эффективная температура на солнце - температура, которую ощущает человек, с поправкой на солнечный нагрев. Характеристика знойности погоды. Зависит от высоты солнца над горизонтом, облачности и скорости ветра. Ночью, в пасмурную погоду, а также при ветре 12 м/с и более поправка равна нулю.
  • P - Атмосферное давление - приведенное к уровню моря атмосферное давление.
  • Po - Атмосферное давление - измеренное на уровне метеостанции атмосферное давление.
  • Tmin - Минимальная температура - минимум температуры воздуха на высоте 2 м над землей.
  • Tmax - Максимальная температура - максимум температуры воздуха на высоте 2 м над землей.
  • R - Количество осадков - Количество выпавших осадков за период времени, мм. При наведении курсора мыши на число - период времени, за который выпало указанное количество осадков.
  • R24 - Количество осадков - Количество выпавших осадков за 24 часа, мм.
  • S - Снежный покров - Высота снежного покрова, см. При наведении курсора мыши на число - состояние снежного покрова и степень покрытия местности в баллах.